| time (UTC) | temp F | wind direction | speed knots | gust knots | rain 1hr in | rain 24hr in | rain mn in | humidity % | barometer mb |
| 20260510095101 | 49 | 142 | 0.0 | 0.0 | 0.00 | 0.00 | 0.00 | 99 | 1001.1 |
| 20260510094601 | 49 | 142 | 0.0 | 0.0 | 0.00 | 0.00 | 0.00 | 99 | 1001.2 |
| 20260510094056 | 49 | 142 | 0.0 | 0.0 | 0.00 | 0.00 | 0.00 | 99 | 1001.0 |
| 20260510093553 | 49 | 143 | 0.0 | 0.0 | 0.00 | 0.00 | 0.00 | 99 | 1001.0 |
| 20260510093050 | 49 | 138 | 0.0 | 0.0 | 0.00 | 0.00 | 0.00 | 99 | 1001.1 |
| 20260510092547 | 50 | 138 | 0.0 | 0.0 | 0.00 | 0.00 | 0.00 | 99 | 1001.0 |
| 20260510092046 | 50 | 138 | 0.0 | 0.0 | 0.00 | 0.00 | 0.00 | 99 | 1001.1 |
| 20260510091543 | 50 | 138 | 0.0 | 0.0 | 0.00 | 0.00 | 0.00 | 99 | 1001.1 |
| 20260510091039 | 50 | 138 | 0.0 | 0.0 | 0.00 | 0.00 | 0.00 | 99 | 1001.0 |
| 20260510090536 | 50 | 138 | 0.0 | 0.0 | 0.00 | 0.00 | 0.00 | 99 | 1001.0 |
| 20260510090032 | 50 | 138 | 0.0 | 0.0 | 0.00 | 0.00 | 0.00 | 99 | 1001.1 |
| 20260510085532 | 50 | 138 | 0.0 | 0.0 | 0.00 | 0.00 | 0.00 | 99 | 1001.0 |
| 20260510085029 | 50 | 138 | 0.0 | 0.0 | 0.00 | 0.00 | 0.00 | 99 | 1001.1 |
| 20260510084526 | 50 | 137 | 0.0 | 0.0 | 0.00 | 0.00 | 0.00 | 99 | 1000.8 |
| 20260510084022 | 50 | 137 | 0.0 | 0.0 | 0.00 | 0.00 | 0.00 | 99 | 1000.9 |
| 20260510083519 | 50 | 140 | 0.0 | 0.0 | 0.00 | 0.00 | 0.00 | 99 | 1001.0 |
| 20260510083015 | 50 | 140 | 0.0 | 0.0 | 0.00 | 0.00 | 0.00 | 99 | 1000.8 |
| 20260510082512 | 50 | 140 | 0.0 | 0.0 | 0.00 | 0.00 | 0.00 | 99 | 1001.0 |
| 20260510082012 | 51 | 140 | 0.0 | 0.0 | 0.00 | 0.00 | 0.00 | 99 | 1000.7 |
| 20260510081508 | 51 | 140 | 0.0 | 0.0 | 0.00 | 0.00 | 0.00 | 99 | 1001.0 |
| 20260510081004 | 51 | 140 | 0.0 | 0.0 | 0.00 | 0.00 | 0.00 | 99 | 1000.9 |
| 20260510080502 | 51 | 135 | 0.0 | 0.0 | 0.00 | 0.00 | 0.00 | 99 | 1000.8 |
| 20260510080000 | 51 | 135 | 0.0 | 0.0 | 0.00 | 0.00 | 0.00 | 99 | 1000.6 |
| 20260510075457 | 51 | 135 | 0.0 | 0.0 | 0.00 | 0.00 | 0.00 | 98 | 1000.4 |
| 20260510074954 | 51 | 138 | 0.0 | 0.0 | 0.00 | 0.00 | 0.00 | 98 | 1000.4 |
| 20260510074451 | 51 | 137 | 0.0 | 0.0 | 0.00 | 0.00 | 0.00 | 98 | 1000.5 |
| 20260510073947 | 51 | 139 | 0.0 | 0.0 | 0.00 | 0.00 | 0.00 | 98 | 1000.2 |
| 20260510073443 | 51 | 139 | 0.0 | 0.0 | 0.00 | 0.00 | 0.00 | 98 | 1000.3 |
| 20260510072939 | 51 | 139 | 0.0 | 0.0 | 0.00 | 0.00 | 0.00 | 98 | 1000.2 |
| 20260510072437 | 51 | 139 | 0.0 | 0.0 | 0.00 | 0.00 | 0.00 | 98 | 1000.0 |
| 20260510071932 | 51 | 139 | 0.0 | 0.0 | 0.00 | 0.00 | 0.00 | 98 | 1000.1 |
| 20260510071429 | 51 | 139 | 0.0 | 0.0 | 0.00 | 0.00 | 0.00 | 98 | 1000.0 |
| 20260510070927 | 51 | 141 | 0.0 | 0.0 | 0.00 | 0.00 | 0.00 | 98 | 1000.0 |
| 20260510070424 | 52 | 141 | 0.0 | 0.0 | 0.00 | 0.00 | 0.00 | 98 | 1000.0 |
| 20260510065919 | 52 | 141 | 0.0 | 0.0 | 0.00 | 0.00 | 0.00 | 98 | 1000.1 |
| 20260510065416 | 52 | 141 | 0.0 | 0.0 | 0.00 | 0.00 | 0.00 | 98 | 1000.1 |
| 20260510064912 | 52 | 141 | 0.0 | 0.0 | 0.00 | 0.00 | 0.00 | 98 | 999.9 |
| 20260510064410 | 52 | 140 | 0.0 | 0.0 | 0.00 | 0.00 | 0.00 | 98 | 999.9 |
| 20260510063906 | 53 | 140 | 0.0 | 0.0 | 0.00 | 0.00 | 0.00 | 98 | 999.9 |
| 20260510063403 | 53 | 141 | 0.0 | 0.0 | 0.00 | 0.00 | 0.00 | 98 | 999.8 |
| 20260510062901 | 53 | 140 | 0.0 | 0.0 | 0.00 | 0.00 | 0.00 | 98 | 999.7 |
| 20260510062355 | 53 | 142 | 0.0 | 0.0 | 0.00 | 0.00 | 0.00 | 98 | 999.9 |
| 20260510061851 | 53 | 133 | 0.0 | 0.0 | 0.00 | 0.00 | 0.00 | 97 | 999.7 |
| 20260510061348 | 53 | 135 | 0.0 | 0.0 | 0.00 | 0.00 | 0.00 | 97 | 999.7 |
| 20260510060843 | 53 | 140 | 0.0 | 0.0 | 0.00 | 0.00 | 0.00 | 97 | 999.7 |
| 20260510060341 | 53 | 141 | 0.0 | 0.0 | 0.00 | 0.00 | 0.00 | 97 | 999.7 |
| 20260510055837 | 53 | 141 | 0.0 | 0.0 | 0.00 | 0.00 | 0.00 | 97 | 999.8 |
| 20260510055336 | 53 | 141 | 0.0 | 0.0 | 0.00 | 0.00 | 0.00 | 97 | 999.9 |
| 20260510054831 | 53 | 141 | 0.0 | 0.0 | 0.00 | 0.00 | 0.00 | 97 | 999.7 |
| 20260510054327 | 53 | 141 | 0.0 | 0.0 | 0.00 | 0.00 | 0.00 | 97 | 999.8 |
| 20260510053822 | 54 | 141 | 0.0 | 0.0 | 0.00 | 0.00 | 0.00 | 97 | 1000.0 |
| 20260510053317 | 54 | 141 | 0.0 | 0.0 | 0.00 | 0.00 | 0.00 | 96 | 999.8 |
| 20260510052814 | 54 | 141 | 0.0 | 0.0 | 0.00 | 0.00 | 0.00 | 96 | 1000.1 |
| 20260510052310 | 54 | 141 | 0.0 | 0.0 | 0.00 | 0.00 | 0.00 | 96 | 1000.1 |
| 20260510051806 | 54 | 141 | 0.0 | 0.0 | 0.00 | 0.00 | 0.00 | 96 | 1000.0 |
| 20260510051302 | 54 | 141 | 0.0 | 0.0 | 0.00 | 0.00 | 0.00 | 96 | 999.8 |
| 20260510050759 | 55 | 141 | 0.0 | 0.0 | 0.00 | 0.00 | 0.00 | 96 | 999.9 |
| 20260510050256 | 55 | 141 | 0.0 | 0.0 | 0.00 | 0.00 | 0.00 | 96 | 1000.0 |
| 20260510045753 | 55 | 141 | 0.0 | 0.0 | 0.00 | 0.00 | 0.00 | 95 | 999.8 |
| 20260510045249 | 55 | 137 | 0.0 | 0.0 | 0.00 | 0.00 | 0.00 | 95 | 999.8 |
| 20260510044747 | 55 | 137 | 0.0 | 0.0 | 0.00 | 0.00 | 0.00 | 95 | 999.7 |
| 20260510044244 | 55 | 137 | 0.0 | 0.0 | 0.00 | 0.00 | 0.00 | 95 | 999.9 |
| 20260510043740 | 55 | 137 | 0.0 | 0.0 | 0.00 | 0.00 | 0.00 | 94 | 999.8 |
| 20260510043237 | 56 | 142 | 0.0 | 0.0 | 0.00 | 0.00 | 0.00 | 94 | 1000.0 |
| 20260510042734 | 56 | 142 | 0.0 | 0.0 | 0.00 | 0.00 | 0.00 | 94 | 999.9 |
| 20260510042229 | 56 | 143 | 0.0 | 0.0 | 0.00 | 0.00 | 0.00 | 94 | 999.9 |
| 20260510041726 | 56 | 144 | 0.0 | 0.0 | 0.00 | 0.00 | 0.00 | 93 | 1000.0 |
| 20260510041224 | 56 | 144 | 0.0 | 0.0 | 0.00 | 0.00 | 0.00 | 93 | 999.8 |
| 20260510040720 | 57 | 144 | 0.0 | 0.0 | 0.00 | 0.00 | 0.00 | 93 | 999.8 |
| 20260510040217 | 57 | 144 | 0.0 | 0.0 | 0.00 | 0.00 | 0.00 | 92 | 999.8 |
| 20260510035713 | 57 | 144 | 0.0 | 0.0 | 0.00 | 0.00 | 0.00 | 92 | 999.9 |
| 20260510035209 | 57 | 144 | 0.0 | 0.0 | 0.00 | 0.00 | 0.00 | 92 | 999.6 |
| 20260510034705 | 57 | 144 | 0.0 | 0.0 | 0.00 | 0.00 | 0.00 | 91 | 999.7 |
| 20260510034202 | 58 | 144 | 0.0 | 0.0 | 0.00 | 0.00 | 0.00 | 91 | 999.7 |
| 20260510033659 | 58 | 144 | 0.0 | 0.0 | 0.00 | 0.00 | 0.00 | 90 | 999.7 |
| 20260510033157 | 58 | 144 | 0.0 | 0.0 | 0.00 | 0.00 | 0.00 | 90 | 999.7 |
| 20260510032652 | 58 | 144 | 0.0 | 0.0 | 0.00 | 0.00 | 0.00 | 89 | 999.7 |
| 20260510032148 | 59 | 144 | 0.0 | 0.0 | 0.00 | 0.00 | 0.00 | 89 | 999.8 |
| 20260510031643 | 59 | 144 | 0.0 | 0.0 | 0.00 | 0.00 | 0.00 | 88 | 999.8 |
| 20260510031140 | 59 | 144 | 0.0 | 0.0 | 0.00 | 0.00 | 0.00 | 87 | 999.6 |
| 20260510030634 | 60 | 145 | 0.0 | 0.0 | 0.00 | 0.00 | 0.00 | 87 | 999.9 |
| 20260510030132 | 60 | 145 | 0.0 | 0.0 | 0.00 | 0.00 | 0.00 | 87 | 999.6 |
| 20260510025629 | 60 | 145 | 0.0 | 0.0 | 0.00 | 0.00 | 0.00 | 86 | 999.7 |
| 20260510025126 | 60 | 145 | 0.0 | 0.0 | 0.00 | 0.00 | 0.00 | 85 | 999.8 |
| 20260510024623 | 61 | 145 | 0.0 | 0.0 | 0.00 | 0.00 | 0.00 | 85 | 999.8 |
| 20260510024120 | 61 | 143 | 0.0 | 0.0 | 0.00 | 0.00 | 0.00 | 85 | 999.4 |
| 20260510023615 | 61 | 148 | 0.0 | 0.0 | 0.00 | 0.00 | 0.00 | 84 | 999.5 |
| 20260510023113 | 61 | 144 | 0.0 | 0.0 | 0.00 | 0.00 | 0.00 | 84 | 999.5 |
| 20260510022613 | 61 | 150 | 0.0 | 0.0 | 0.00 | 0.00 | 0.00 | 84 | 999.6 |
| 20260510022108 | 61 | 150 | 0.0 | 0.0 | 0.00 | 0.00 | 0.00 | 84 | 999.3 |
| 20260510021558 | 61 | 139 | 0.0 | 0.0 | 0.00 | 0.00 | 0.00 | 85 | 999.4 |
| 20260510021056 | 61 | 139 | 0.0 | 0.0 | 0.00 | 0.00 | 0.00 | 85 | 999.3 |
| 20260510020549 | 61 | 139 | 0.0 | 0.0 | 0.00 | 0.00 | 0.00 | 84 | 999.3 |
| 20260510020046 | 62 | 138 | 0.0 | 0.0 | 0.00 | 0.00 | 0.00 | 84 | 999.1 |
| 20260510015541 | 62 | 140 | 0.0 | 0.0 | 0.00 | 0.00 | 0.00 | 82 | 999.1 |
| 20260510015038 | 62 | 146 | 0.0 | 0.0 | 0.00 | 0.00 | 0.00 | 82 | 999.1 |
| 20260510014534 | 63 | 145 | 0.0 | 0.0 | 0.00 | 0.00 | 0.00 | 81 | 999.0 |
| 20260510014031 | 63 | 148 | 0.0 | 0.0 | 0.00 | 0.00 | 0.00 | 81 | 999.0 |
| 20260510013525 | 63 | 133 | 0.0 | 0.9 | 0.00 | 0.00 | 0.00 | 80 | 999.0 |
| 20260510013022 | 64 | 145 | 0.0 | 0.0 | 0.00 | 0.00 | 0.00 | 79 | 998.9 |
| 20260510012517 | 64 | 149 | 0.0 | 0.0 | 0.00 | 0.00 | 0.00 | 79 | 998.8 |
| 20260510012013 | 64 | 145 | 0.0 | 0.0 | 0.00 | 0.00 | 0.00 | 78 | 998.6 |
| 20260510011513 | 64 | 145 | 0.0 | 0.9 | 0.00 | 0.00 | 0.00 | 78 | 998.7 |
| 20260510011008 | 64 | 140 | 0.0 | 0.0 | 0.00 | 0.00 | 0.00 | 78 | 998.5 |
| 20260510010506 | 64 | 144 | 0.0 | 0.0 | 0.00 | 0.00 | 0.00 | 78 | 998.4 |
| 20260510010003 | 64 | 144 | 0.0 | 0.0 | 0.00 | 0.00 | 0.00 | 77 | 998.3 |
| 20260510005458 | 65 | 144 | 0.0 | 0.0 | 0.00 | 0.00 | 0.00 | 77 | 998.5 |
| 20260510004956 | 65 | 142 | 0.0 | 0.0 | 0.00 | 0.00 | 0.00 | 77 | 998.5 |
| 20260510004453 | 65 | 145 | 0.0 | 0.0 | 0.00 | 0.00 | 0.00 | 76 | 998.4 |
| 20260510003952 | 65 | 143 | 0.0 | 0.0 | 0.00 | 0.00 | 0.00 | 76 | 998.4 |
| 20260510003448 | 65 | 148 | 0.0 | 0.0 | 0.00 | 0.00 | 0.00 | 76 | 998.3 |
| 20260510002943 | 65 | 135 | 0.0 | 0.0 | 0.00 | 0.00 | 0.00 | 76 | 998.3 |
| 20260510002439 | 65 | 89 | 0.0 | 0.9 | 0.00 | 0.00 | 0.00 | 77 | 998.1 |
| 20260510001936 | 65 | 134 | 0.0 | 0.0 | 0.00 | 0.00 | 0.00 | 76 | 998.2 |
| 20260510001433 | 65 | 141 | 0.0 | 0.0 | 0.00 | 0.00 | 0.00 | 76 | 998.2 |
| 20260510000931 | 66 | 141 | 0.0 | 0.0 | 0.00 | 0.00 | 0.00 | 74 | 998.1 |
| 20260510000427 | 66 | 141 | 0.0 | 0.0 | 0.00 | 0.00 | 0.00 | 73 | 998.1 |
| 20260509235923 | 67 | 141 | 0.0 | 0.0 | 0.00 | 0.00 | 0.00 | 72 | 997.9 |
| 20260509235420 | 67 | 141 | 0.0 | 0.0 | 0.00 | 0.00 | 0.00 | 72 | 998.1 |
| 20260509234916 | 68 | 140 | 0.0 | 0.0 | 0.00 | 0.00 | 0.00 | 70 | 998.1 |
| 20260509234414 | 68 | 143 | 0.0 | 0.0 | 0.00 | 0.00 | 0.00 | 69 | 998.1 |
| 20260509233912 | 69 | 143 | 0.0 | 0.0 | 0.00 | 0.00 | 0.00 | 68 | 997.8 |
| 20260509233409 | 69 | 143 | 0.0 | 0.0 | 0.00 | 0.00 | 0.00 | 66 | 998.0 |
| 20260509232904 | 69 | 143 | 0.0 | 0.0 | 0.00 | 0.00 | 0.00 | 65 | 997.7 |
| 20260509232402 | 70 | 145 | 0.0 | 0.0 | 0.00 | 0.00 | 0.00 | 64 | 997.9 |
| 20260509231857 | 70 | 143 | 0.0 | 0.0 | 0.00 | 0.00 | 0.00 | 63 | 997.7 |
| 20260509231355 | 71 | 142 | 0.0 | 0.0 | 0.00 | 0.00 | 0.00 | 62 | 997.7 |
| 20260509230852 | 71 | 142 | 0.0 | 0.0 | 0.00 | 0.00 | 0.00 | 62 | 997.7 |
| 20260509230349 | 71 | 143 | 0.0 | 0.0 | 0.00 | 0.00 | 0.00 | 63 | 997.8 |
| 20260509225844 | 71 | 138 | 0.0 | 0.0 | 0.00 | 0.00 | 0.00 | 60 | 998.1 |
| 20260509225342 | 71 | 138 | 0.0 | 0.0 | 0.00 | 0.00 | 0.00 | 60 | 997.5 |
| 20260509224837 | 71 | 147 | 0.0 | 0.0 | 0.00 | 0.00 | 0.00 | 58 | 997.8 |
| 20260509224334 | 72 | 148 | 0.0 | 0.0 | 0.00 | 0.00 | 0.00 | 58 | 997.8 |
| 20260509223831 | 72 | 133 | 0.0 | 0.0 | 0.00 | 0.00 | 0.00 | 59 | 997.6 |
| 20260509223328 | 72 | 148 | 0.0 | 0.0 | 0.00 | 0.00 | 0.00 | 56 | 997.6 |
| 20260509222825 | 72 | 141 | 0.0 | 0.0 | 0.00 | 0.00 | 0.00 | 57 | 997.8 |
| 20260509222320 | 71 | 149 | 0.0 | 0.0 | 0.00 | 0.00 | 0.00 | 57 | 997.6 |
| 20260509221816 | 71 | 125 | 0.9 | 0.9 | 0.00 | 0.00 | 0.00 | 64 | 997.9 |
| 20260509221314 | 71 | 148 | 0.0 | 0.0 | 0.00 | 0.00 | 0.00 | 60 | 997.8 |
| 20260509220813 | 71 | 136 | 0.0 | 0.0 | 0.00 | 0.00 | 0.00 | 60 | 997.6 |
| 20260509220310 | 71 | 142 | 0.0 | 0.0 | 0.00 | 0.00 | 0.00 | 60 | 997.8 |
| 20260509215806 | 71 | 146 | 0.0 | 0.0 | 0.00 | 0.00 | 0.00 | 60 | 997.8 |
| 20260509215305 | 71 | 137 | 0.0 | 0.0 | 0.00 | 0.00 | 0.00 | 62 | 997.9 |
| 20260509214759 | 71 | 138 | 0.0 | 0.0 | 0.00 | 0.00 | 0.00 | 61 | 997.9 |
| 20260509214256 | 72 | 144 | 0.0 | 0.0 | 0.00 | 0.00 | 0.00 | 59 | 997.8 |
| 20260509213753 | 72 | 144 | 0.0 | 0.0 | 0.00 | 0.00 | 0.00 | 58 | 997.7 |
| 20260509213249 | 72 | 113 | 0.0 | 0.0 | 0.00 | 0.00 | 0.00 | 57 | 997.7 |
| 20260509212746 | 72 | 132 | 0.0 | 0.0 | 0.00 | 0.00 | 0.00 | 58 | 998.0 |
| 20260509212244 | 72 | 137 | 0.0 | 0.0 | 0.00 | 0.00 | 0.00 | 57 | 997.7 |
| 20260509211745 | 72 | 155 | 0.0 | 0.0 | 0.00 | 0.00 | 0.00 | 56 | 997.8 |
| 20260509211241 | 73 | 146 | 0.0 | 0.0 | 0.00 | 0.00 | 0.00 | 56 | 997.8 |
| 20260509210738 | 72 | 148 | 0.0 | 0.0 | 0.00 | 0.00 | 0.00 | 56 | 997.6 |
| 20260509210236 | 72 | 146 | 0.0 | 0.0 | 0.00 | 0.00 | 0.00 | 57 | 997.7 |
| 20260509205735 | 72 | 158 | 0.0 | 0.0 | 0.00 | 0.00 | 0.00 | 57 | 997.8 |
| 20260509205236 | 72 | 154 | 0.0 | 0.0 | 0.00 | 0.00 | 0.00 | 58 | 997.9 |
| 20260509204731 | 72 | 179 | 0.0 | 0.9 | 0.00 | 0.00 | 0.00 | 58 | 997.7 |
| 20260509204229 | 72 | 152 | 0.0 | 0.9 | 0.00 | 0.00 | 0.00 | 56 | 997.7 |
| 20260509203724 | 72 | 177 | 0.9 | 1.7 | 0.00 | 0.00 | 0.00 | 57 | 997.6 |
| 20260509203223 | 72 | 130 | 0.0 | 0.0 | 0.00 | 0.00 | 0.00 | 58 | 997.6 |
| 20260509202718 | 71 | 154 | 0.0 | 0.0 | 0.00 | 0.00 | 0.00 | 57 | 997.5 |
| 20260509202213 | 72 | 166 | 0.0 | 0.9 | 0.00 | 0.00 | 0.00 | 57 | 997.5 |
| 20260509201708 | 71 | 186 | 0.0 | 0.0 | 0.00 | 0.00 | 0.00 | 59 | 997.5 |
| 20260509201206 | 71 | 145 | 0.0 | 0.0 | 0.00 | 0.00 | 0.00 | 61 | 997.6 |
| 20260509200703 | 71 | 152 | 0.0 | 0.0 | 0.00 | 0.00 | 0.00 | 59 | 997.8 |
| 20260509200203 | 71 | 150 | 0.0 | 0.0 | 0.00 | 0.00 | 0.00 | 63 | 998.1 |
| 20260509195659 | 71 | 161 | 0.0 | 0.9 | 0.00 | 0.00 | 0.00 | 61 | 997.9 |
| 20260509195155 | 71 | 135 | 0.9 | 0.9 | 0.00 | 0.00 | 0.00 | 61 | 998.2 |
| 20260509194654 | 71 | 166 | 0.0 | 0.9 | 0.00 | 0.00 | 0.00 | 60 | 998.2 |
| 20260509194152 | 71 | 155 | 0.0 | 0.0 | 0.00 | 0.00 | 0.00 | 62 | 998.2 |
| 20260509193647 | 71 | 246 | 1.7 | 1.7 | 0.00 | 0.00 | 0.00 | 61 | 998.3 |
| 20260509193143 | 71 | 151 | 0.0 | 0.0 | 0.00 | 0.00 | 0.00 | 61 | 998.4 |
| 20260509192640 | 70 | 137 | 0.0 | 0.0 | 0.00 | 0.00 | 0.00 | 63 | 998.4 |
| 20260509192135 | 70 | 147 | 0.0 | 0.9 | 0.00 | 0.00 | 0.00 | 68 | 998.6 |
| 20260509191635 | 69 | 134 | 0.0 | 0.0 | 0.00 | 0.00 | 0.00 | 71 | 998.6 |
| 20260509191132 | 69 | 139 | 0.0 | 0.0 | 0.00 | 0.00 | 0.00 | 69 | 998.5 |
| 20260509190628 | 69 | 143 | 0.0 | 0.0 | 0.00 | 0.00 | 0.00 | 67 | 998.7 |
| 20260509190126 | 69 | 128 | 0.0 | 0.0 | 0.00 | 0.00 | 0.00 | 69 | 998.7 |
| 20260509185623 | 68 | 152 | 0.0 | 0.0 | 0.00 | 0.00 | 0.00 | 69 | 998.6 |
| 20260509185119 | 68 | 139 | 0.9 | 0.9 | 0.00 | 0.00 | 0.00 | 69 | 998.8 |
| 20260509184618 | 68 | 153 | 0.0 | 0.0 | 0.00 | 0.00 | 0.00 | 70 | 998.8 |
| 20260509184114 | 68 | 92 | 0.9 | 0.9 | 0.00 | 0.00 | 0.00 | 67 | 998.8 |
| 20260509183609 | 68 | 134 | 0.0 | 0.0 | 0.00 | 0.00 | 0.00 | 74 | 999.0 |
| 20260509183105 | 67 | 141 | 0.0 | 0.0 | 0.00 | 0.00 | 0.00 | 75 | 998.9 |
| 20260509182602 | 66 | 140 | 0.0 | 0.0 | 0.00 | 0.00 | 0.00 | 79 | 999.0 |
| 20260509182059 | 66 | 141 | 0.0 | 0.0 | 0.00 | 0.00 | 0.00 | 79 | 999.2 |
| 20260509181557 | 66 | 141 | 0.0 | 0.0 | 0.00 | 0.00 | 0.00 | 78 | 999.1 |
| 20260509181054 | 66 | 148 | 0.0 | 0.0 | 0.00 | 0.00 | 0.00 | 75 | 999.2 |
| 20260509180550 | 68 | 135 | 0.0 | 0.0 | 0.00 | 0.00 | 0.00 | 72 | 999.5 |
| 20260509180047 | 68 | 139 | 0.0 | 0.0 | 0.00 | 0.00 | 0.00 | 65 | 999.5 |
| 20260509175542 | 68 | 129 | 0.0 | 0.0 | 0.00 | 0.00 | 0.00 | 64 | 999.5 |
| 20260509175040 | 68 | 147 | 0.0 | 0.0 | 0.00 | 0.00 | 0.00 | 62 | 999.6 |
| 20260509174536 | 69 | 135 | 0.9 | 0.9 | 0.00 | 0.00 | 0.00 | 64 | 999.8 |
| 20260509174031 | 69 | 148 | 0.0 | 0.0 | 0.00 | 0.00 | 0.00 | 64 | 999.7 |
| 20260509173526 | 69 | 168 | 0.0 | 0.9 | 0.00 | 0.00 | 0.00 | 62 | 999.7 |
| 20260509173022 | 70 | 146 | 0.0 | 0.0 | 0.00 | 0.00 | 0.00 | 62 | 999.7 |
| 20260509172520 | 70 | 139 | 0.0 | 0.0 | 0.00 | 0.00 | 0.00 | 61 | 999.9 |
| 20260509172015 | 70 | 133 | 0.9 | 0.9 | 0.00 | 0.00 | 0.00 | 61 | 999.7 |
| 20260509171512 | 69 | 143 | 0.0 | 0.0 | 0.00 | 0.00 | 0.00 | 65 | 999.7 |
| 20260509171009 | 69 | 143 | 0.0 | 0.0 | 0.00 | 0.00 | 0.00 | 62 | 1000.1 |
| 20260509170504 | 69 | 140 | 0.0 | 0.0 | 0.00 | 0.00 | 0.00 | 64 | 1000.0 |
| 20260509165959 | 68 | 138 | 0.0 | 0.0 | 0.00 | 0.00 | 0.00 | 65 | 999.9 |
| 20260509165458 | 68 | 150 | 0.0 | 0.0 | 0.00 | 0.00 | 0.00 | 65 | 1000.1 |
| 20260509164955 | 68 | 143 | 0.0 | 0.0 | 0.00 | 0.00 | 0.00 | 65 | 1000.0 |
| 20260509164450 | 67 | 144 | 0.0 | 0.0 | 0.00 | 0.00 | 0.00 | 64 | 1000.0 |
| 20260509163946 | 68 | 149 | 0.0 | 0.0 | 0.00 | 0.00 | 0.00 | 63 | 1000.1 |
| 20260509163444 | 68 | 138 | 0.0 | 0.0 | 0.00 | 0.00 | 0.00 | 64 | 1000.0 |
| 20260509162943 | 68 | 138 | 0.0 | 0.0 | 0.00 | 0.00 | 0.00 | 65 | 999.9 |
| 20260509162442 | 68 | 141 | 0.0 | 0.9 | 0.00 | 0.00 | 0.00 | 64 | 999.9 |
| 20260509161938 | 68 | 140 | 0.0 | 0.0 | 0.00 | 0.00 | 0.00 | 64 | 1000.0 |
| 20260509161434 | 68 | 129 | 0.0 | 0.0 | 0.00 | 0.00 | 0.00 | 64 | 1000.1 |
| 20260509160930 | 69 | 146 | 0.0 | 0.0 | 0.00 | 0.00 | 0.00 | 61 | 1000.2 |
| 20260509160426 | 68 | 120 | 0.0 | 0.0 | 0.00 | 0.00 | 0.00 | 66 | 1000.1 |
| 20260509155921 | 68 | 140 | 0.0 | 0.0 | 0.00 | 0.00 | 0.00 | 61 | 1000.1 |
| 20260509155418 | 67 | 135 | 0.0 | 0.0 | 0.00 | 0.00 | 0.00 | 62 | 1000.3 |
| 20260509154914 | 67 | 152 | 0.0 | 0.0 | 0.00 | 0.00 | 0.00 | 65 | 1000.2 |
| 20260509154411 | 67 | 146 | 0.0 | 0.0 | 0.00 | 0.00 | 0.00 | 64 | 1000.4 |
| 20260509153908 | 67 | 170 | 0.9 | 0.9 | 0.00 | 0.00 | 0.00 | 63 | 1000.5 |
| 20260509153405 | 67 | 140 | 0.0 | 0.0 | 0.00 | 0.00 | 0.00 | 64 | 1000.4 |
| 20260509152902 | 66 | 120 | 0.0 | 0.0 | 0.00 | 0.00 | 0.00 | 64 | 1000.5 |
| 20260509152358 | 68 | 163 | 0.0 | 0.0 | 0.00 | 0.00 | 0.00 | 62 | 1000.2 |
| 20260509151855 | 68 | 145 | 0.0 | 0.0 | 0.00 | 0.00 | 0.00 | 63 | 1000.4 |
| 20260509151350 | 66 | 159 | 0.0 | 0.0 | 0.00 | 0.00 | 0.00 | 67 | 1000.8 |
| 20260509150849 | 67 | 159 | 0.0 | 0.0 | 0.00 | 0.00 | 0.00 | 62 | 1000.6 |
| 20260509150347 | 67 | 150 | 0.0 | 0.0 | 0.00 | 0.00 | 0.00 | 63 | 1000.5 |
| 20260509145844 | 67 | 117 | 0.9 | 0.9 | 0.00 | 0.00 | 0.00 | 61 | 1000.4 |
| 20260509145338 | 66 | 151 | 0.0 | 0.0 | 0.00 | 0.00 | 0.00 | 62 | 1000.7 |
| 20260509144835 | 65 | 147 | 0.0 | 0.9 | 0.00 | 0.00 | 0.00 | 63 | 1000.9 |
| 20260509144332 | 64 | 145 | 0.0 | 0.0 | 0.00 | 0.00 | 0.00 | 65 | 1000.8 |
| 20260509143829 | 64 | 165 | 0.0 | 0.9 | 0.00 | 0.00 | 0.00 | 66 | 1001.0 |
| 20260509143327 | 62 | 151 | 0.0 | 0.0 | 0.00 | 0.00 | 0.00 | 67 | 1001.0 |
| 20260509142822 | 62 | 143 | 0.0 | 0.0 | 0.00 | 0.00 | 0.00 | 70 | 1001.1 |
| 20260509142319 | 62 | 147 | 0.0 | 0.0 | 0.00 | 0.00 | 0.00 | 69 | 1001.2 |
| 20260509141814 | 62 | 146 | 0.0 | 0.0 | 0.00 | 0.00 | 0.00 | 69 | 1001.2 |
| 20260509141312 | 61 | 155 | 0.0 | 0.0 | 0.00 | 0.00 | 0.00 | 69 | 1001.0 |
| 20260509140808 | 61 | 148 | 0.0 | 0.0 | 0.00 | 0.00 | 0.00 | 69 | 1000.9 |
| 20260509140305 | 61 | 147 | 0.0 | 0.0 | 0.00 | 0.00 | 0.00 | 68 | 1000.9 |
| 20260509135803 | 61 | 150 | 0.0 | 0.0 | 0.00 | 0.00 | 0.00 | 68 | 1001.0 |
| 20260509135300 | 61 | 144 | 0.0 | 0.0 | 0.00 | 0.00 | 0.00 | 69 | 1001.1 |
| 20260509134757 | 61 | 148 | 0.0 | 0.0 | 0.00 | 0.00 | 0.00 | 68 | 1001.3 |
| 20260509134255 | 61 | 150 | 0.0 | 0.0 | 0.00 | 0.00 | 0.00 | 69 | 1001.2 |
| 20260509133752 | 61 | 152 | 0.0 | 0.0 | 0.00 | 0.00 | 0.00 | 68 | 1001.1 |
| 20260509133248 | 61 | 153 | 0.0 | 0.0 | 0.00 | 0.00 | 0.00 | 67 | 1001.0 |
| 20260509132747 | 61 | 153 | 0.0 | 0.0 | 0.00 | 0.00 | 0.00 | 67 | 1001.1 |
| 20260509132245 | 61 | 160 | 0.0 | 0.0 | 0.00 | 0.00 | 0.00 | 68 | 1001.1 |
| 20260509131741 | 61 | 156 | 0.0 | 0.0 | 0.00 | 0.00 | 0.00 | 68 | 1001.1 |
| 20260509131238 | 61 | 146 | 0.0 | 0.0 | 0.00 | 0.00 | 0.00 | 69 | 1001.2 |
| 20260509130734 | 61 | 178 | 0.0 | 0.0 | 0.00 | 0.00 | 0.00 | 67 | 1001.1 |
| 20260509130230 | 61 | 138 | 0.0 | 0.0 | 0.00 | 0.00 | 0.00 | 68 | 1001.3 |
| 20260509125727 | 61 | 154 | 0.0 | 0.0 | 0.00 | 0.00 | 0.00 | 65 | 1001.0 |
| 20260509125224 | 61 | 153 | 0.0 | 0.0 | 0.00 | 0.00 | 0.00 | 64 | 1001.3 |
| 20260509124720 | 62 | 173 | 0.0 | 0.0 | 0.00 | 0.00 | 0.00 | 67 | 1001.2 |
| 20260509124217 | 61 | 154 | 0.0 | 0.0 | 0.00 | 0.00 | 0.00 | 66 | 1000.8 |
| 20260509123716 | 61 | 157 | 0.0 | 0.0 | 0.00 | 0.00 | 0.00 | 66 | 1001.0 |
| 20260509123213 | 61 | 155 | 0.0 | 0.0 | 0.00 | 0.00 | 0.00 | 66 | 1000.7 |
| 20260509122708 | 60 | 154 | 0.0 | 0.0 | 0.00 | 0.00 | 0.00 | 65 | 1000.7 |
| 20260509122205 | 60 | 141 | 0.9 | 0.9 | 0.00 | 0.00 | 0.00 | 66 | 1001.0 |
| 20260509121702 | 60 | 144 | 0.0 | 0.0 | 0.00 | 0.00 | 0.00 | 66 | 1001.0 |
| 20260509121200 | 60 | 154 | 0.0 | 0.0 | 0.00 | 0.00 | 0.00 | 65 | 1000.9 |
| 20260509120658 | 60 | 177 | 0.9 | 0.9 | 0.00 | 0.00 | 0.00 | 66 | 1000.8 |
| 20260509120155 | 60 | 147 | 0.0 | 0.0 | 0.00 | 0.00 | 0.00 | 66 | 1000.9 |
| 20260509115652 | 59 | 149 | 0.0 | 0.0 | 0.00 | 0.00 | 0.00 | 67 | 1001.0 |
| 20260509115150 | 59 | 150 | 0.0 | 0.0 | 0.00 | 0.00 | 0.00 | 65 | 1000.9 |
| 20260509114648 | 60 | 155 | 0.0 | 0.0 | 0.00 | 0.00 | 0.00 | 65 | 1000.7 |
| 20260509114147 | 59 | 150 | 0.0 | 0.0 | 0.00 | 0.00 | 0.00 | 65 | 1000.8 |
| 20260509113645 | 59 | 140 | 0.0 | 0.0 | 0.00 | 0.00 | 0.00 | 65 | 1000.9 |
| 20260509113141 | 60 | 150 | 0.0 | 0.0 | 0.00 | 0.00 | 0.00 | 63 | 1000.6 |
| 20260509112638 | 59 | 138 | 0.0 | 0.0 | 0.00 | 0.00 | 0.00 | 64 | 1000.8 |
| 20260509112135 | 59 | 147 | 0.0 | 0.0 | 0.00 | 0.00 | 0.00 | 64 | 1000.7 |
| 20260509111632 | 59 | 149 | 0.0 | 0.9 | 0.00 | 0.00 | 0.00 | 62 | 1000.5 |
| 20260509111129 | 58 | 155 | 0.0 | 0.0 | 0.00 | 0.00 | 0.00 | 61 | 1000.5 |
| 20260509110626 | 58 | 158 | 0.0 | 0.0 | 0.00 | 0.00 | 0.00 | 63 | 1000.6 |
| 20260509110124 | 58 | 149 | 0.0 | 0.0 | 0.00 | 0.00 | 0.00 | 62 | 1000.7 |
| 20260509105621 | 58 | 143 | 0.0 | 0.0 | 0.00 | 0.00 | 0.00 | 65 | 1000.6 |
| 20260509105118 | 57 | 147 | 0.0 | 0.0 | 0.00 | 0.00 | 0.00 | 64 | 1000.6 |
| 20260509104615 | 57 | 148 | 0.0 | 0.0 | 0.00 | 0.00 | 0.00 | 69 | 1000.4 |
| 20260509104112 | 56 | 150 | 0.0 | 0.0 | 0.00 | 0.00 | 0.00 | 66 | 1000.7 |
| 20260509103610 | 56 | 144 | 0.0 | 0.0 | 0.00 | 0.00 | 0.00 | 72 | 1000.3 |
| 20260509103108 | 56 | 145 | 0.0 | 0.0 | 0.00 | 0.00 | 0.00 | 71 | 1000.3 |
| 20260509102605 | 56 | 141 | 0.0 | 0.0 | 0.00 | 0.00 | 0.00 | 69 | 1000.5 |
| 20260509102102 | 56 | 141 | 0.0 | 0.0 | 0.00 | 0.00 | 0.00 | 68 | 1000.3 |
| 20260509101558 | 56 | 140 | 0.0 | 0.0 | 0.00 | 0.00 | 0.00 | 69 | 1000.4 |
| 20260509101055 | 56 | 141 | 0.0 | 0.0 | 0.00 | 0.00 | 0.00 | 69 | 1000.4 |
| 20260509100552 | 56 | 141 | 0.0 | 0.0 | 0.00 | 0.00 | 0.00 | 68 | 1000.3 |
| 20260509100050 | 57 | 141 | 0.0 | 0.0 | 0.00 | 0.00 | 0.00 | 67 | 1000.1 |
| 20260509095546 | 57 | 140 | 0.0 | 0.0 | 0.00 | 0.00 | 0.00 | 67 | 1000.2 |